Regional Weather Roundup
Issued by NWS

Home | Current Version | Previous Version | Text Only | Print | Product List | Glossary Off
Versions: 1 2 3 4 5 6 7 8 9 10 11 12 13 14 15 16 17 18 19 20 21 22 23 24 25 26 27 28 29 30 31 32 33 34 35 36 37 38 39 40 41 42 43 44 45 46 47 48 49 50

000
ASUS43 KOAX 230210
RWRNE

WEATHER ROUNDUP FOR NEBRASKA
NATIONAL WEATHER SERVICE OMAHA NE
800 PM CST WED NOV 22 2017

NOTES: SATELLITE DATA IS BEING USED TO AUGMENT CLOUD COVER ABOVE
       12000 FEET.
       "FAIR" INDICATES FEW OR NO CLOUDS BELOW 12,000 FEET WITH NO
       SIGNIFICANT WEATHER AND/OR OBSTRUCTIONS TO VISIBILITY.


NEZ001>004-019>022-054>056-230300-
NEBRASKA PANHANDLE

CITY           SKY/WX    TMP DP  RH WIND       PRES   REMARKS
SCOTTSBLUFF    CLEAR     50  39  66 W6        30.16R
ALLIANCE       CLEAR     44  36  73 W13       30.13R
CHADRON        CLEAR     52  38  58 SW12      30.10R
GORDON         FAIR      50  36  57 W6        30.09R
KIMBALL        CLOUDY    52  39  61 NW14      30.20S
SIDNEY         CLOUDY    51  39  63 W13       30.18R
$$

NEZ057>060-069>072-079>082-230300-
SOUTHWEST NEBRASKA

CITY           SKY/WX    TMP DP  RH WIND       PRES   REMARKS
NORTH PLATTE   CLEAR     40  34  79 CALM      30.08R
IMPERIAL       CLOUDY    48  35  60 W7        30.12R
LEXINGTON      PTCLDY    41  32  70 N3        30.07S
MCCOOK         CLEAR     50  37  61 W6        30.09R
OGALLALA       CLEAR     44  34  67 SW7       30.12R
$$

NEZ005>010-023>029-035>040-094-230300-
NORTH CENTRAL NEBRASKA

CITY           SKY/WX    TMP DP  RH WIND       PRES   REMARKS
VALENTINE      CLEAR     48  36  63 W8        30.03S
AINSWORTH      CLEAR     51  37  60 W6        30.03S
BROKEN BOW     CLEAR     49  35  58 CALM      30.05R
O`NEILL        CLOUDY    45  34  65 SW7       30.00S
ORD            PTCLDY    40  30  67 CALM      30.03R
THEDFORD       CLOUDY    51  37  59 W5        30.07S
$$

NEZ041-046>049-061>064-073>077-083>087-230300-
SOUTH CENTRAL NEBRASKA

CITY           SKY/WX    TMP DP  RH WIND       PRES   REMARKS
GRAND ISLAND   CLOUDY    46  29  51 S10       30.06S
AURORA         PTCLDY    44  22  41 S10       30.06S
HASTINGS       PTCLDY    44  25  47 S6        30.07S
HEBRON         PTCLDY    42  21  43 S5        30.10F
HOLDREGE       CLEAR     48  33  55 S8        30.07S
KEARNEY        CLOUDY    49  31  49 SW12      30.06S
YORK           CLOUDY    41  23  48 S9        30.07F
$$

NEZ011>018-030>034-042>045-230300-
NORTHEAST NEBRASKA

CITY           SKY/WX    TMP DP  RH WIND       PRES   REMARKS
NORFOLK        MOCLDY    46  24  42 S18G24    29.98F
ALBION         CLOUDY    47  28  46 S3        30.03F
BLAIR          MOCLDY    39  20  47 S16G22    30.05F WCI  30
COLUMBUS       MOCLDY    44  22  41 SW10      30.05F
FREMONT        CLOUDY    39  19  45 S9G17     30.06F WCI  33
TEKAMAH        PTCLDY    36  19  50 S10       30.05F WCI  28
WAYNE          PTCLDY    41  19  41 SW14      29.98F
$$

NEZ050>053-065>068-078-088>093-230300-
SOUTHEAST NEBRASKA

CITY           SKY/WX    TMP DP  RH WIND       PRES   REMARKS
LINCOLN        CLOUDY    40  21  46 S8        30.10F WCI  34
OMAHA EPPLEY   MOCLDY    38  18  44 S12       30.09F WCI  30
BEATRICE       CLOUDY    41  21  45 S9        30.11F
FALLS CITY     CLOUDY    35  17  47 S9        30.14F WCI  28
NEBRASKA CITY  PTCLDY    35  21  56 S10       30.12F WCI  27
PLATTSMOUTH    PTCLDY    37  20  50 S10       30.10F WCI  29
$$

NEZ044-045-051>053-067-230300-
OMAHA AREA

CITY           SKY/WX    TMP DP  RH WIND       PRES   REMARKS
OMAHA EPPLEY   MOCLDY    38  18  44 S12       30.09F WCI  30
BLAIR          MOCLDY    39  20  47 S16G22    30.05F WCI  30
FREMONT        CLOUDY    39  19  45 S9G17     30.06F WCI  33
MILLARD        PTCLDY    38  22  52 SE5       30.09F WCI  34
OFFUTT AFB     PTCLDY    35  19  52 S10       30.09F WCI  27
PLATTSMOUTH    PTCLDY    37  20  50 S10       30.10F WCI  29
WAHOO          MOCLDY    37  20  51 S9        30.07F WCI  30
$$



USA.gov is the U.S. government's official web portal to all federal, state and local government web resources and services.